Location: Brachstadt
(48.6975°N, 10.6755°E)
Time: 09:00:23
(UTC+00:00)

Cosmos 2263 Rocket - Pass Details

Date: 18 September 2020
Orbit: 822 x 850 km, 71.0° (Epoch: 24 October)

Event Time Altitude Azimuth Distance (km) Brightness Sun altitude
Rises 17:47:58 0° 191° (S) 3,343 5.4 -4.9°
Reaches altitude 10° 17:50:25 10° 187° (S) 2,416 4.6 -5.3°
Maximum altitude 17:55:48 54° 111° (ESE) 997 2.3 -6.2°
Drops below altitude 10° 18:01:14 10° 36° (NE) 2,445 4.4 -7.1°
Sets 18:03:43 0° 32° (NNE) 3,387 5.1 -7.5°
